Regional Weather Roundup
Issued by NWS Northern Indiana

Home | Current Version | Previous Version | Graphics & Text | Print | Product List | Glossary On
Versions: 1 2 3 4 5 6 7 8 9 10 11 12 13 14 15 16 17 18 19 20 21 22 23 24 25 26 27 28 29 30 31 32 33 34 35 36 37 38 39 40 41 42 43 44 45 46 47 48 49 50
000
ASUS43 KIWX 170010
RWRIWX

KIWX WEATHER ROUNDUP
NATIONAL WEATHER SERVICE NORTHERN INDIANA
800 PM EDT TUE SEP 16 2014

NOTE: "FAIR" INDICATES FEW OR NO CLOUDS BELOW 12,000 FEET WITH NO
SIGNIFICANT WEATHER AND/OR OBSTRUCTIONS TO VISIBILITY.

* THESE STATIONS ARE NOT UNDER NWS QUALITY CONTROL. THEY ALSO MAY NOT
  REPORT WEATHER SUCH AS PRECIPITATION OR FOG.

INZ001>027-170100-
NORTHERN INDIANA

CITY           SKY/WX    TMP DP  RH WIND       PRES   REMARKS
GARY*          PTCLDY    61  52  72 E3        30.10F
VALPARAISO     CLEAR     59  47  64 N3        30.10F
6HR MIN TEMP:  57; 6HR MAX TEMP:  66;

MICHIGAN CITY* CLEAR     54  46  76 CALM      30.11S
LAPORTE*       CLEAR     56  46  68 NE3       30.11S
6HR MIN TEMP:  56; 6HR MAX TEMP:  64;

KNOX*          PTCLDY    59  51  75 NE3       30.10S
6HR MIN TEMP:  41; 6HR MAX TEMP:  89;

SOUTH BEND     CLEAR     58  45  62 N5        30.11F
6HR MIN TEMP:  57; 6HR MAX TEMP:  67;

ELKHART*       CLEAR     59  46  63 NW3       30.12S
GOSHEN         CLEAR     59  49  69 NW8       30.10S
6HR MIN TEMP:  58; 6HR MAX TEMP:  66;

MONTICELLO*    CLEAR     57  52  82 CALM      30.09S
6HR MIN TEMP:  57; 6HR MAX TEMP:  66;

LOGANSPORT*    CLEAR     57  46  67 CALM      30.10S
ROCHESTER*     CLEAR     59  50  72 CALM      30.11S
WARSAW*        CLEAR     57  46  67 NW3       30.10S
ANGOLA*        CLEAR     61  48  63 CALM      30.10S
FORT WAYNE     PTCLDY    58  46  64 CALM      30.10F
6HR MIN TEMP:  58; 6HR MAX TEMP:  66;

HUNTINGTON*    CLEAR     55  50  86 CALM      30.10S
6HR MIN TEMP:  55; 6HR MAX TEMP:  64;

PERU/GRISSOM   CLEAR     59  52  77 NE2       30.10S
6HR MIN TEMP:  59; 6HR MAX TEMP:  66;

MARION*        CLEAR     58  49  72 CALM      30.11S
6HR MIN TEMP:  40; 6HR MAX TEMP:  90;


$$
INZ028>050-170100-
CENTRAL INDIANA

CITY           SKY/WX    TMP DP  RH WIND       PRES   REMARKS
LAFAYETTE      CLEAR     57  52  83 CALM      30.09F
6HR MIN TEMP:  57; 6HR MAX TEMP:  66;

KOKOMO*        CLEAR     59  46  63 CALM      30.10S
6HR MIN TEMP:  59; 6HR MAX TEMP:  66;

MUNCIE*        PTCLDY    58  47  66 CALM      30.11S
6HR MIN TEMP:  57; 6HR MAX TEMP:  64;

INDIANAPOLIS   PTCLDY    58  49  72 E8        30.09F
6HR MIN TEMP:  58; 6HR MAX TEMP:  67;


$$
MIZ043>046-050>051-056>058-064>065-071>073-077>080-170100-
SOUTHWEST LOWER MICHIGAN

CITY           SKY/WX    TMP DP  RH WIND       PRES   REMARKS
BATTLE CREEK   CLEAR     56  44  64 W9        30.11R
6HR MIN TEMP:  56; 6HR MAX TEMP:  66;

BENTON HARBOR  CLEAR     52  46  80 CALM      30.11F
6HR MIN TEMP:  52; 6HR MAX TEMP:  62;

COLDWATER*     PTCLDY    59  49  68 W7        30.10S
6HR MIN TEMP:  59; 6HR MAX TEMP:  68;

HILLSDALE*     CLEAR     55  48  76 CALM      30.09S
HOLLAND        CLEAR     53  44  71 CALM      30.12S
6HR MIN TEMP:  53; 6HR MAX TEMP:  64;

GRAND RAPIDS   CLEAR     54  43  66 W7        30.11S
6HR MIN TEMP:  54; 6HR MAX TEMP:  66;

KALAMAZOO      CLEAR     56  43  61 NW8       30.12S
6HR MIN TEMP:  56; 6HR MAX TEMP:  67;

STURGIS*       PTCLDY    57  48  72 NW6       30.10S
THREE RIVERS*  FAIR      57  47  69 CALM      30.11S
6HR MIN TEMP:  57; 6HR MAX TEMP:  67;


$$
OHZ001>008-015>018-024>025-170100-
NORTHWEST OHIO

CITY           SKY/WX    TMP DP  RH WIND       PRES   REMARKS
WAUSEON*       FAIR      55  48  76 W5        30.09S
DEFIANCE       CLEAR     58  49  72 CALM      30.09F
6HR MIN TEMP:  58; 6HR MAX TEMP:  68;

FINDLAY        CLEAR     60  47  61 SW3       30.09S
6HR MIN TEMP:  60; 6HR MAX TEMP:  68;

TOLEDO EXPRESS CLEAR     55  50  83 S3        30.08F
6HR MIN TEMP:  55; 6HR MAX TEMP:  66;

TOLEDO METCALF CLEAR     61  45  55 SW3       30.09F
6HR MIN TEMP:  60; 6HR MAX TEMP:  67;

LIMA           CLEAR     58  49  72 SW3       30.10S
6HR MIN TEMP:  57; 6HR MAX TEMP:  66;


$$
&&


USA.gov is the U.S. government's official web portal to all federal, state and local government web resources and services.